Regional Weather Roundup
Issued by NWS

Home | Current Version | Previous Version | Text Only | Print | Product List | Glossary On
Versions: 1 2 3 4 5 6 7 8 9 10 11 12 13 14 15 16 17 18 19 20 21 22 23 24 25 26 27 28 29 30 31 32 33 34 35 36 37 38 39 40 41 42 43 44 45 46 47 48 49 50
000
ASUS43 KDTX 262010
RWRMI
MICHIGAN HOURLY REGIONAL WEATHER ROUNDUP
NATIONAL WEATHER SERVICE DETROIT/PONTIAC MI
400 PM EDT TUE MAY 26 2015

NOTE: "FAIR" INDICATES FEW OR NO CLOUDS BELOW 12,000 FEET WITH NO
SIGNIFICANT WEATHER AND/OR OBSTRUCTION TO VISIBILITY.

MIZ047>049-052>055-059>063-066>070-074>076-081>083-262100-
SOUTHEAST LOWER MICHIGAN

CITY           SKY/WX    TMP DP  RH WIND       PRES   REMARKS
ADRIAN         PTSUNNY   86  61  42 S16G24    29.90F
ALMA           PTSUNNY   79  65  61 SE9G18    29.86F
ANN ARBOR      PTSUNNY   81  65  58 SE13      29.91F
BAD AXE        MOSUNNY   80  62  54 S17G25    29.93F
CARO           MOSUNNY   83  66  55 S15G22    29.90F
DETROIT CITY   PTSUNNY   82  65  56 S15       29.95F
DETROIT        CLOUDY    81  64  56 SE12G25   29.94F
FLINT          MOSUNNY   85  63  47 S16       29.90F
GROSSE ILE     PTSUNNY   81  66  61 SE8       29.93F
HILLSDALE      PTSUNNY   82  60  47 S9G18     29.89F
HOWELL         MOSUNNY   84  62  47 S14G23    29.89F

CITY           SKY/WX    TMP DP  RH WIND       PRES   REMARKS
JACKSON        LGT RAIN  81  63  54 S13G26    29.87F
LAMBERTVILLE   PTSUNNY   86  59  39 S10G17    29.92F
LANSING        LGT RAIN  79  65  62 SE17G24   29.86F
LAPEER         PTSUNNY   81  61  50 S14G21    29.93F
MASON          MOSUNNY   79  65  60 S17G24    29.87F
MONROE         PTSUNNY   77  64  65 E7        29.92F
MT. CLEMENS    PTSUNNY   81  66  60 SE15G22   29.94F
PONTIAC        PTSUNNY   82  64  54 S13G21    29.92F
PORT HOPE        N/A    N/A N/A N/A CALM      29.91F
PORT HURON     MOSUNNY   81  66  61 S14       29.95F
TRI CITIES     PTSUNNY   82  64  54 S13       29.88F
MIDLAND        PTSUNNY   82  63  52 S12G18    29.86F
TROY           PTSUNNY   84  64  51 SE14G20   29.95F
SAGINAW HB     MOSUNNY   82  63  51 SE18      29.88F
$$
MIZ043>046-050>051-056>058-064>065-071>073-077>080-262100-
SOUTHWEST LOWER MICHIGAN

CITY           SKY/WX    TMP DP  RH WIND       PRES   REMARKS
BATTLE CREEK   CLOUDY    82  62  50 S22G30    29.83F
BENTON HARBOR  HVY RAIN  70  68  93 S13G28    29.82S FOG
BIG RAPIDS     LGT RAIN  76  62  62 SE17G24   29.83F
COLDWATER      CLOUDY    78  63  60 S10G18    29.85F
FREMONT        PTSUNNY   76  64  68 S5        29.80F
HOLLAND        HVY RAIN  74  69  85 S22G31    29.81F
GRAND RAPIDS   LGT RAIN  75  69  81 SE7       29.81F
IONIA          FAIR      80  65  59 S13       29.82F
KALAMAZOO      LGT RAIN  75  65  70 S10G26    29.82F
LUDINGTON      HVY RAIN  66  63  90 CALM      29.82F
MARSHALL       CLOUDY    84  62  47 S15G25    29.84F
MOUNT PLEASANT PTSUNNY   80  64  57 S12G18    29.85F
MUSKEGON       HVY RAIN  72  68  87 SE14      29.78F FOG
SOUTH HAVEN    CLOUDY    73  67  82 S12G20    29.83R
$$
MIZ016>042-262100-
NORTHERN LOWER MICHIGAN

CITY           SKY/WX    TMP DP  RH WIND       PRES   REMARKS
ALPENA         MOSUNNY   85  59  41 S20       29.86F
BEAVER ISLAND  CLOUDY    62  57  86 W9        29.86F HAZE
BELLAIRE       CLOUDY    79  60  51 S10G17    29.83F
CADILLAC       CLOUDY    76  64  66 SE13      29.84F
CHARLEVOIX     CLOUDY    64  59  84 W9        29.87F
FRANKFORT      LGT RAIN  76  63  64 E5        29.80F
GAYLORD        PTSUNNY   79  58  48 S14       29.87F
GRAYLING       PTSUNNY   79  61  53 S10G16    29.89F
HARBOR SPRINGS CLOUDY    63  58  84 SW6       29.84S
HOUGHTON LAKE  PTSUNNY   80  62  54 S9G18     29.88F
MANISTEE       CLOUDY    73  63  68 SE3       29.81F
OSCODA         MOSUNNY   81  62  53 S15G22    29.89F
PELLSTON       CLOUDY    81  65  58 S5        29.84F
ROGERS CITY    MOSUNNY   85  58  39 S15G21    29.85F
TRAVERSE CITY  CLOUDY    79  62  56 VRB5      29.81F
$$
MIZ007>008-015-262100-
EASTERN UPPER MICHIGAN

CITY           SKY/WX    TMP DP  RH WIND       PRES   REMARKS
KINROSS        CLOUDY    79  66  65 SW5       29.85F
MACKINAC ISLAN CLOUDY    66  60  81 E5        29.85F
NEWBERRY       CLOUDY    64  63  94 SW9G18    29.85F FOG
S. S. MARIE    CLOUDY    77  65  66 SW9       29.84F
MUNISING         N/A     53  49  86 N3        29.84F
$$
MIZ004>006-011>014-085-262100-
CENTRAL UPPER MICHIGAN

CITY           SKY/WX    TMP DP  RH WIND       PRES   REMARKS
MANISTIQUE     FOG       56  56  97 SW5       29.84F VSB 1/4
ESCANABA       CLOUDY    61  55  82 S9        29.82F
MENOMINEE      CLOUDY    63  57  82 S12G18    29.79F
SAWYER-GWINN   PTSUNNY   61  55  82 E9        29.83F
$$
MIZ001>003-009>011-084-262100-
WESTERN UPPER MICHIGAN

CITY           SKY/WX    TMP DP  RH WIND       PRES   REMARKS
IRON MOUNTAIN  RAIN      66  61  84 SE12G24   29.80R
HOUGHTON       CLOUDY    61  52  72 CALM      29.84R
COPPER HARBOR    N/A     54  49  83 N3        29.83F
IRONWOOD       CLOUDY    55  52  88 NE7       29.80F
$$

ABBREVIATIONS USED IN REMARKS
   TC - TEMPERATURE IN CELSIUS
  WCI - WIND CHILL INDEX
   HX - HEAT INDEX
  VSB - VISIBILITY




USA.gov is the U.S. government's official web portal to all federal, state and local government web resources and services.